1507287600.02,7343,13.06,72830.0,-2.09,-4.37,-4.65,0,*6F
1507287601.21,7344,13.06,72828.0,-2.09,-4.29,-4.65,0,*67
1507287602.43,7345,13.06,72826.3,-2.09,-4.25,-4.69,0,*66
1507287603.64,7346,13.06,72824.8,-2.09,-4.49,-4.89,0,*61
1507287604.85,7347,13.06,72824.0,-2.09,-4.49,-4.81,0,*68
1507287606.1,7348,13.06,72830.5,-2.07,-4.33,-4.77,0,*6D
1507287607.35,7349,13.06,72824.5,-2.07,-4.65,-5.11,0,*6E
1507287608.56,7350,13.06,72828.8,-2.05,-4.45,-4.89,0,*66
1507287609.81,7351,13.06,72824.5,-2.07,-4.49,-5.03,0,*6A
1507287611.05,7352,13.06,72824.0,-2.07,-4.89,-5.51,0,*62
1507287612.3,7353,13.06,72826.8,-2.07,-4.65,-5.23,0,*64
1507287613.55,7354,13.06,72824.8,-2.07,-4.53,-5.03,0,*64
1507287614.76,7355,13.06,72826.5,-2.07,-4.49,-4.99,0,*6C
1507287616.01,7356,13.06,72828.3,-2.07,-4.61,-5.03,0,*67
1507287617.22,7357,13.06,72826.5,-2.09,-4.37,-4.77,0,*69
1507287618.43,7358,13.06,72824.8,-2.09,-4.53,-4.93,0,*6E
1507287619.62,7359,13.06,72828.5,-2.09,-4.25,-4.53,0,*62
1507287620.81,7360,13.06,72826.5,-2.09,-4.05,-4.49,0,*61
1507287622.04,7361,13.06,72828.0,-2.07,-3.95,-4.33,0,*6D
1507287623.24,7362,13.06,72824.8,-2.05,-3.95,-4.37,0,*68
1507287624.46,7363,13.06,72828.8,-2.05,-4.01,-4.37,0,*63
1507287625.67,7364,13.06,72824.0,-2.05,-3.83,-4.37,0,*69
1507287626.87,7365,13.06,72828.0,-2.05,-3.83,-4.33,0,*6C
1507287628.09,7366,13.06,72830.5,-1.99,-3.79,-4.29,0,*67
1507287629.29,7367,13.06,72826.3,-2.01,-3.79,-4.33,0,*6F
1507287630.48,7368,13.06,72826.8,-2.01,-3.83,-4.45,0,*64
1507287631.72,7369,13.06,72824.5,-1.99,-3.71,-4.41,0,*6E
1507287632.97,7370,13.06,72826.3,-1.99,-3.63,-4.29,0,*6B
1507287634.19,7371,13.06,72826.5,-1.97,-3.63,-4.29,0,*64
1507287635.4,7372,13.06,72826.5,-1.97,-3.67,-4.37,0,*6C
1507287636.61,7373,13.06,72828.5,-1.97,-4.17,-4.89,0,*68
1507287637.86,7374,13.06,72826.5,-1.95,-4.25,-4.93,0,*67
1507287639.05,7375,13.06,72828.3,-1.97,-3.87,-4.53,0,*67
1507287640.27,7376,13.06,72828.3,-1.95,-3.87,-4.53,0,*66
1507287641.52,7377,13.06,72830.5,-1.95,-3.63,-4.37,0,*6F
1507287642.74,7378,13.06,72830.3,-1.93,-3.63,-4.37,0,*66
1507287643.93,7379,13.06,72828.5,-1.93,-3.83,-4.61,0,*6A
1507287645.18,7380,13.06,72830.8,-1.91,-3.95,-4.73,0,*6A
1507287646.42,7381,13.06,72830.0,-1.91,-4.65,-5.69,0,*69
1507287647.65,7382,13.06,72828.5,-1.93,-4.85,-5.69,0,*66
1507287648.87,7383,13.06,72830.8,-1.91,-4.65,-5.51,0,*60
1507287650.06,7384,13.06,72828.3,-1.93,-4.61,-5.43,0,*62
1507287651.27,7385,13.06,72832.8,-1.91,-4.65,-5.43,0,*65
1507287652.48,7386,13.06,72832.0,-1.91,-4.53,-5.43,0,*63
1507287653.73,7387,13.06,72830.3,-1.91,-4.49,-5.27,0,*6B
1507287654.95,7388,13.06,72828.0,-1.89,-4.57,-5.27,0,*62
1507287656.19,7389,13.06,72828.5,-1.89,-4.69,-5.07,0,*6C
1507287657.43,7390,13.06,72830.8,-1.89,-4.73,-5.07,0,*6F
1507287658.64,7391,13.06,72834.0,-1.89,-5.19,-5.39,0,*6E
1507287659.87,7392,13.06,72832.5,-1.87,-5.43,-5.73,0,*62
1507287661.11,7393,13.06,72832.0,-1.87,-5.85,-6.13,0,*6C
1507287662.36,7394,13.06,72830.8,-1.89,-5.93,-6.27,0,*65
1507287663.54,7395,13.06,72826.8,-1.89,-6.05,-6.13,0,*6F
1507287664.73,7396,13.06,72830.5,-1.89,-5.97,-6.31,0,*64
1507287665.94,7397,13.06,72828.8,-1.89,-5.77,-6.05,0,*6C
1507287667.18,7398,13.06,72832.0,-1.91,-5.11,-5.43,0,*6B
1507287668.44,7399,13.06,72828.3,-1.91,-4.85,-5.11,0,*61
1507287669.71,7400,13.06,72826.3,-1.91,-5.23,-5.65,0,*68
1507287670.96,7401,13.06,72824.3,-1.87,-4.69,-4.93,0,*69
1507287672.2,7402,13.06,72824.0,-1.87,-4.53,-4.81,0,*60
1507287673.41,7403,13.06,72820.3,-1.89,-4.37,-4.69,0,*6B
1507287674.65,7404,13.06,72822.0,-1.87,-4.57,-4.93,0,*61
1507287675.88,7405,13.06,72820.8,-1.85,-4.93,-5.19,0,*69
1507287677.1,7406,13.06,72822.0,-1.85,-4.29,-4.69,0,*6D
1507287678.32,7407,13.06,72820.0,-1.83,-4.37,-4.65,0,*69
1507287679.56,7408,13.06,72824.0,-1.83,-4.41,-4.73,0,*60
1507287680.81,7409,13.06,72820.3,-1.83,-5.51,-5.89,0,*65
1507287682.0,7410,13.06,72822.0,-1.85,-6.13,-6.51,0,*68
1507287683.21,7411,13.06,72822.0,-1.85,-5.43,-5.69,0,*67
1507287684.46,7412,13.06,72826.3,-1.85,-5.31,-5.61,0,*69
1507287685.72,7413,13.06,72826.8,-1.87,-5.31,-5.69,0,*62
1507287686.96,7414,13.06,72822.3,-1.87,-5.07,-5.43,0,*68
1507287688.22,7415,13.06,72824.0,-1.87,-4.81,-5.31,0,*63
1507287689.46,7416,13.06,72826.0,-1.87,-4.57,-4.93,0,*62
1507287690.71,7417,13.06,72824.0,-1.87,-5.07,-5.55,0,*6C
1507287691.92,7418,13.06,72828.3,-1.85,-5.03,-5.47,0,*66
1507287693.19,7419,13.06,72826.5,-1.87,-5.23,-5.69,0,*6B
1507287694.45,7420,13.06,72824.3,-1.87,-5.31,-5.73,0,*69
1507287695.72,7421,13.06,72828.5,-1.87,-4.81,-5.23,0,*67
1507287696.95,7422,13.06,72830.3,-1.87,-4.41,-4.81,0,*61
1507287698.17,7423,13.06,72826.8,-1.87,-4.29,-4.57,0,*65
1507287699.41,7424,13.06,72830.0,-1.87,-4.57,-4.93,0,*63
1507287700.66,7425,13.06,72826.8,-1.85,-5.07,-5.61,0,*68
1507287701.89,7426,13.06,72830.3,-1.85,-4.77,-5.03,0,*69
1507287703.13,7427,13.06,72828.8,-1.85,-4.69,-5.07,0,*63
1507287704.32,7428,13.06,72830.5,-1.85,-4.05,-4.33,0,*60
1507287705.54,7429,13.06,72828.3,-1.83,-4.25,-4.61,0,*62
1507287706.76,7430,13.06,72828.0,-1.83,-4.25,-4.65,0,*6E
1507287707.99,7431,13.06,72828.8,-1.83,-4.25,-4.61,0,*6B
1507287709.24,7432,13.06,72826.5,-1.83,-4.53,-5.03,0,*6C
1507287710.48,7433,13.06,72830.8,-1.83,-4.29,-4.73,0,*66
1507287711.71,7434,13.06,72828.3,-1.81,-4.77,-5.15,0,*69
1507287712.94,7435,13.06,72828.3,-1.77,-4.21,-4.57,0,*65
1507287714.19,7436,13.06,72828.8,-1.77,-4.41,-4.81,0,*6B
1507287715.42,7437,13.06,72828.3,-1.77,-4.29,-4.57,0,*6F
1507287716.64,7438,13.06,72826.5,-1.77,-4.13,-4.45,0,*6A
1507287717.86,7439,13.06,72830.0,-1.75,-4.01,-4.33,0,*6B
1507287719.09,7440,13.06,72828.5,-1.75,-4.01,-4.41,0,*60
1507287720.31,7441,13.06,72828.3,-1.75,-4.01,-4.33,0,*64
1507287721.51,7442,13.06,72828.3,-1.75,-4.05,-4.57,0,*61
1507287722.73,7443,13.06,72828.8,-1.75,-4.29,-4.77,0,*6C
1507287723.93,7444,13.06,72826.8,-1.75,-4.05,-4.41,0,*60
1507287725.17,7445,13.06,72828.3,-1.73,-4.65,-5.07,0,*62
1507287726.44,7446,13.06,72828.3,-1.73,-4.77,-5.27,0,*60
1507287727.67,7447,13.06,72830.3,-1.73,-4.41,-4.77,0,*60
1507287728.94,7448,13.06,72828.8,-1.73,-4.73,-5.15,0,*6B
1507287730.17,7449,13.06,72830.5,-1.73,-4.37,-4.73,0,*6B
1507287731.42,7450,13.06,72830.0,-1.73,-4.61,-5.03,0,*66
1507287732.69,7451,13.06,72828.0,-1.73,-4.73,-5.07,0,*60
1507287733.91,7452,13.06,72830.3,-1.71,-4.61,-4.85,0,*69
1507287735.11,7453,13.06,72830.8,-1.71,-4.29,-4.65,0,*6A
1507287736.31,7454,13.06,72828.8,-1.71,-4.25,-4.61,0,*65
1507287737.51,7455,13.06,72826.8,-1.71,-4.25,-4.53,0,*65
1507287738.71,7456,13.06,72830.5,-1.71,-4.09,-4.29,0,*65
1507287739.93,7457,13.06,72830.5,-1.69,-4.05,-4.25,0,*6D
1507287741.15,7458,13.06,72828.3,-1.69,-3.91,-4.09,0,*66
1507287742.38,7459,13.06,72824.8,-1.69,-3.83,-4.05,0,*68
1507287743.58,7460,13.06,72828.0,-1.67,-3.83,-4.05,0,*6C
1507287744.81,7461,13.06,72828.5,-1.65,-3.91,-4.29,0,*62
1507287746.02,7462,13.06,72824.0,-1.67,-4.45,-4.69,0,*69
1507287747.29,7463,13.06,72828.3,-1.65,-4.69,-5.11,0,*6A
1507287748.51,7464,13.06,72828.0,-1.67,-4.57,-4.85,0,*6E
1507287749.73,7465,13.06,72824.0,-1.65,-4.65,-4.99,0,*61
1507287750.94,7466,13.06,72830.0,-1.65,-4.17,-4.41,0,*62
1507287752.17,7467,13.06,72824.8,-1.65,-3.75,-4.05,0,*60
1507287753.37,7468,13.06,72824.3,-1.67,-3.79,-4.09,0,*6D
1507287754.61,7469,13.06,72826.8,-1.65,-3.55,-3.91,0,*66
1507287755.86,7470,13.06,72826.3,-1.65,-3.51,-3.79,0,*6C
1507287757.1,7471,13.06,72826.8,-1.65,-3.43,-3.75,0,*62
1507287758.35,7472,13.06,72828.3,-1.61,-3.59,-3.87,0,*63
1507287759.57,7473,13.06,72826.5,-1.61,-3.39,-3.83,0,*60
1507287760.82,7474,13.06,72826.8,-1.61,-3.47,-3.83,0,*6E
1507287762.06,7475,13.06,72824.0,-1.61,-3.47,-3.87,0,*6B
1507287763.28,7476,13.06,72828.5,-1.59,-3.71,-4.09,0,*67
1507287764.49,7477,13.06,72826.8,-1.59,-3.91,-4.33,0,*61
1507287765.73,7478,13.06,72828.8,-1.59,-3.67,-4.01,0,*66
1507287766.96,7479,13.06,72826.3,-1.59,-3.71,-4.21,0,*62
1507287768.18,7480,13.06,72830.5,-1.55,-3.71,-4.13,0,*69
1507287769.39,7481,13.06,72828.5,-1.59,-3.83,-4.21,0,*68
1507287770.62,7482,13.06,72830.3,-1.59,-3.59,-4.13,0,*6D
1507287771.85,7483,13.06,72828.3,-1.59,-3.67,-4.21,0,*60
1507287773.06,7484,13.06,72832.5,-1.59,-3.83,-4.25,0,*69
1507287774.29,7485,13.06,72828.8,-1.53,-3.67,-4.17,0,*69
1507287775.5,7486,13.06,72834.8,-1.55,-3.91,-4.49,0,*6E
1507287776.7,7487,13.06,72834.8,-1.55,-3.79,-4.33,0,*64
1507287777.9,7488,13.06,72832.0,-1.55,-4.13,-4.61,0,*67
1507287779.1,7489,13.06,72834.3,-1.59,-4.09,-4.57,0,*64
1507287780.32,7490,13.06,72834.3,-1.55,-3.71,-4.21,0,*69
1507287781.54,7491,13.06,72832.5,-1.55,-3.71,-4.13,0,*69
1507287782.74,7492,13.06,72838.8,-1.55,-3.91,-4.45,0,*67
1507287783.99,7493,13.06,72834.0,-1.53,-4.21,-4.69,0,*62
1507287785.18,7494,13.06,72834.0,-1.55,-4.49,-4.99,0,*62
1507287786.4,7495,13.06,72838.0,-1.55,-4.37,-4.85,0,*67
1507287787.6,7496,13.06,72832.5,-1.55,-4.09,-4.57,0,*66
1507287788.8,7497,13.06,72834.5,-1.55,-3.79,-4.37,0,*61
1507287790.03,7498,13.06,72834.5,-1.55,-4.21,-4.85,0,*6D
1507287791.28,7499,13.06,72836.3,-1.53,-4.17,-4.69,0,*6D
1507287792.5,7500,13.06,72832.8,-1.53,-3.91,-4.45,0,*6B
1507287793.74,7501,13.06,72838.3,-1.53,-4.45,-5.11,0,*64
1507287794.97,7502,13.06,72834.8,-1.53,-4.85,-5.43,0,*6C
1507287796.19,7503,13.06,72832.3,-1.53,-4.05,-4.57,0,*61
1507287797.42,7504,13.06,72834.3,-1.53,-3.87,-4.53,0,*6F
1507287798.66,7505,13.06,72838.5,-1.49,-4.13,-4.81,0,*60
1507287799.88,7506,13.06,72838.3,-1.49,-4.13,-4.65,0,*69
1507287801.12,7507,13.06,72834.0,-1.53,-4.17,-4.69,0,*6B
1507287802.31,7508,13.06,72832.8,-1.51,-3.87,-4.41,0,*62
1507287803.52,7509,13.06,72836.0,-1.51,-3.79,-4.21,0,*64
1507287804.71,7510,13.06,72832.0,-1.51,-3.75,-4.17,0,*65
1507287805.96,7511,13.06,72834.3,-1.49,-3.63,-4.05,0,*69
1507287807.2,7512,13.06,72832.8,-1.49,-3.63,-3.91,0,*60
1507287808.44,7513,13.06,72832.0,-1.49,-3.63,-4.13,0,*6C
1507287809.71,7514,13.06,72832.5,-1.49,-3.59,-4.01,0,*61
1507287810.96,7515,13.06,72830.3,-1.47,-3.71,-4.13,0,*67
1507287812.18,7516,13.06,72832.3,-1.45,-3.71,-4.13,0,*66
1507287813.4,7517,13.06,72832.8,-1.45,-3.51,-4.09,0,*6E
1507287814.62,7518,13.06,72832.0,-1.43,-3.39,-3.91,0,*6F
1507287815.81,7519,13.06,72832.5,-1.41,-3.39,-3.83,0,*6F
1507287817.01,7520,13.06,72830.3,-1.41,-3.79,-4.29,0,*66
1507287818.25,7521,13.06,72830.3,-1.39,-3.59,-3.87,0,*69
1507287819.47,7522,13.06,72828.0,-1.41,-3.51,-3.83,0,*69
1507287820.71,7523,13.06,72830.5,-1.39,-3.35,-3.71,0,*68
1507287821.94,7524,13.06,72824.8,-1.31,-3.31,-3.67,0,*64
1507287823.18,7525,13.06,72824.3,-1.31,-3.19,-3.59,0,*62
1507287824.41,7526,13.06,72824.5,-1.35,-3.19,-3.59,0,*65
1507287825.64,7527,13.06,72828.3,-1.31,-3.19,-3.55,0,*6C
1507287826.88,7528,13.06,72828.5,-1.27,-3.03,-3.51,0,*6B
1507287828.12,7529,13.06,72824.5,-1.27,-3.27,-3.63,0,*6D
1507287829.32,7530,13.06,72824.8,-1.27,-2.91,-3.31,0,*6E
1507287830.54,7531,13.06,72824.0,-1.27,-3.03,-3.39,0,*6D
1507287831.75,7532,13.06,72826.5,-1.23,-2.83,-3.27,0,*6C
1507287832.96,7533,13.06,72826.8,-1.23,-2.83,-3.15,0,*6C
1507287834.2,7534,13.06,72822.8,-1.23,-2.71,-3.11,0,*62
1507287835.41,7535,13.06,72822.8,-1.21,-2.55,-3.07,0,*60
1507287836.61,7536,13.06,72826.3,-1.19,-2.39,-2.91,0,*6C
1507287837.79,7537,13.06,72824.0,-1.17,-2.43,-3.03,0,*64
1507287839.0,7538,13.06,72828.3,-1.17,-2.55,-3.15,0,*6B
1507287840.2,7539,13.06,72830.0,-1.15,-2.35,-2.99,0,*6B
1507287841.41,7540,13.06,72830.8,-1.15,-2.59,-3.15,0,*6A
1507287842.6,7541,13.06,72830.5,-1.11,-3.31,-3.95,0,*68
1507287843.84,7542,13.06,72830.3,-1.13,-3.55,-4.17,0,*66
1507287845.07,7543,13.06,72826.8,-1.13,-3.75,-4.29,0,*68
1507287846.32,7544,13.06,72834.3,-1.13,-3.51,-4.13,0,*60
1507287847.57,7545,13.06,72830.5,-1.13,-3.63,-4.25,0,*65
1507287848.82,7546,13.06,72832.3,-1.13,-3.39,-4.01,0,*6F
1507287850.06,7547,13.06,72832.8,-1.13,-3.51,-4.05,0,*64
1507287851.26,7548,13.06,72832.3,-1.11,-3.35,-3.95,0,*65
1507287852.48,7549,13.06,72832.0,-1.11,-3.63,-4.21,0,*6F
1507287853.73,7550,13.06,72832.5,-1.13,-3.63,-3.91,0,*69
1507287854.95,7551,13.06,72832.5,-1.11,-3.35,-3.63,0,*64
1507287856.21,7552,13.06,72834.0,-1.05,-3.43,-3.59,0,*6A
1507287857.45,7553,13.06,72832.5,-1.05,-3.27,-3.55,0,*65
1507287858.71,7554,13.06,72832.8,-1.05,-3.47,-3.71,0,*62
1507287859.95,7555,13.06,72834.8,-1.05,-3.27,-3.43,0,*64
1507287861.19,7556,13.06,72830.8,-1.01,-3.43,-3.87,0,*69
1507287862.41,7557,13.06,72834.8,-1.03,-4.57,-4.93,0,*6A
1507287863.65,7558,13.06,72834.8,-1.03,-4.73,-5.23,0,*69
1507287864.87,7559,13.06,72832.5,-1.03,-4.29,-4.69,0,*68
1507287866.09,7560,13.06,72832.0,-1.03,-3.59,-3.79,0,*64
1507287867.31,7561,13.06,72832.8,-1.03,-3.27,-3.55,0,*62
1507287868.58,7562,13.06,72834.0,-1.01,-3.63,-4.01,0,*65
1507287869.79,7563,13.06,72832.0,-1.03,-3.39,-3.55,0,*6F
1507287871.05,7564,13.06,72830.5,-1.01,-3.43,-3.67,0,*66
1507287872.23,7565,13.06,72828.5,-0.99,-2.91,-3.15,0,*5C
1507287873.41,7566,13.06,72830.0,-0.99,-2.99,-3.23,0,*52
1507287874.59,7567,13.06,72832.3,-0.95,-2.83,-3.15,0,*51
1507287875.8,7568,13.06,72834.3,-0.97,-3.11,-3.39,0,*58
1507287877.0,7569,13.06,72828.5,-0.97,-3.07,-3.31,0,*56
1507287878.18,7570,13.06,72834.0,-0.95,-2.83,-3.11,0,*53
1507287879.39,7571,13.06,72828.3,-0.95,-3.35,-3.59,0,*52
1507287880.6,7572,13.06,72834.8,-0.93,-3.07,-3.31,0,*58
1507287881.83,7573,13.06,72830.3,-0.93,-3.71,-3.95,0,*56
1507287883.04,7574,13.06,72830.8,-0.91,-3.43,-3.79,0,*50
1507287884.25,7575,13.06,72832.8,-0.95,-3.27,-3.47,0,*5A
1507287885.46,7576,13.06,72832.3,-0.95,-3.27,-3.67,0,*5B
1507287886.67,7577,13.06,72830.8,-0.93,-2.95,-3.31,0,*57
1507287887.9,7578,13.06,72830.8,-0.93,-3.07,-3.43,0,*57
1507287889.12,7579,13.06,72828.0,-0.89,-3.23,-3.63,0,*59
1507287890.34,7580,13.06,72834.8,-0.89,-3.23,-3.51,0,*5E
1507287891.53,7581,13.06,72832.0,-0.91,-2.99,-3.27,0,*57
1507287892.73,7582,13.06,72830.3,-0.89,-2.87,-3.23,0,*56
1507287893.93,7583,13.06,72828.0,-0.89,-2.87,-3.23,0,*57
1507287895.15,7584,13.06,72828.5,-0.89,-2.75,-3.15,0,*58
1507287896.36,7585,13.06,72830.3,-0.91,-2.67,-3.11,0,*57
1507287897.59,7586,13.06,72832.3,-0.85,-2.63,-3.11,0,*55
1507287898.83,7587,13.13,72834.8,-0.83,-2.59,-3.07,0,*5C
1507287900.02,7588,13.06,72828.5,-0.81,-2.95,-3.31,0,*54
1507287901.2,7589,13.06,72828.0,-0.81,-2.91,-3.31,0,*51
1507287902.39,7590,13.06,72828.3,-0.81,-2.95,-3.35,0,*59
1507287903.6,7591,13.06,72828.5,-0.81,-2.67,-3.07,0,*54
1507287904.84,7592,13.06,72830.0,-0.79,-2.55,-3.03,0,*55
1507287906.05,7593,13.06,72830.3,-0.81,-2.59,-3.07,0,*5B
1507287907.28,7594,13.06,72832.3,-0.79,-2.55,-3.03,0,*53
1507287908.52,7595,13.06,72834.5,-0.79,-2.67,-3.03,0,*53
1507287909.72,7596,13.13,72832.5,-0.77,-2.55,-3.11,0,*5C
1507287910.9,7597,13.13,72836.0,-0.77,-2.79,-3.31,0,*51
1507287912.14,7598,13.06,72830.3,-0.75,-2.63,-3.15,0,*51
1507287913.35,7599,13.06,72828.0,-0.77,-2.67,-3.27,0,*57
1507287914.55,7600,13.06,72830.8,-0.77,-2.87,-3.43,0,*58
1507287915.75,7601,13.13,72834.3,-0.77,-2.99,-3.55,0,*51
1507287916.98,7602,13.06,72832.0,-0.75,-3.07,-3.67,0,*57
1507287918.19,7603,13.06,72832.0,-0.77,-3.43,-3.87,0,*5A
1507287919.39,7604,13.06,72836.3,-0.77,-3.15,-3.63,0,*54
1507287920.62,7605,13.06,72834.5,-0.75,-3.07,-3.71,0,*57
1507287921.81,7606,13.13,72836.5,-0.77,-3.31,-3.75,0,*57
1507287923.01,7607,13.06,72832.3,-0.77,-3.11,-3.67,0,*57
1507287924.21,7608,13.06,72830.5,-0.77,-3.07,-3.47,0,*5D
1507287925.43,7609,13.06,72830.3,-0.75,-3.35,-3.75,0,*5E
1507287926.69,7610,13.06,72826.0,-0.75,-3.51,-4.01,0,*50
1507287927.91,7611,13.06,72828.8,-0.75,-3.95,-4.53,0,*5E
1507287929.13,7612,13.06,72828.5,-0.77,-3.63,-4.21,0,*53
1507287930.33,7613,13.06,72828.0,-0.77,-4.69,-5.35,0,*5B
1507287931.52,7614,13.06,72832.8,-0.81,-6.05,-6.81,0,*51
1507287932.76,7615,13.06,72832.8,-0.81,-5.11,-5.65,0,*5F
1507287933.97,7616,13.06,72834.3,-0.81,-4.61,-5.11,0,*59
1507287935.22,7617,13.06,72834.0,-0.83,-3.71,-4.21,0,*5E
1507287936.45,7618,13.06,72832.0,-0.85,-3.51,-3.95,0,*5D
1507287937.66,7619,13.06,72836.0,-0.85,-3.39,-3.87,0,*51
1507287938.88,7620,13.06,72834.8,-0.83,-3.23,-3.71,0,*5F
1507287940.12,7621,13.06,72832.5,-0.83,-3.19,-3.71,0,*57
1507287941.31,7622,13.13,72838.8,-0.81,-3.35,-3.91,0,*56
1507287942.52,7623,13.06,72832.3,-0.81,-4.09,-4.73,0,*54
1507287943.76,7624,13.06,72832.8,-0.83,-4.53,-5.27,0,*5E
1507287944.98,7625,13.06,72834.8,-0.85,-3.95,-4.49,0,*5D
1507287946.22,7626,13.06,72832.8,-0.83,-3.55,-4.13,0,*5B
1507287947.46,7627,13.06,72836.5,-0.83,-3.59,-4.13,0,*56
1507287948.67,7628,13.06,72834.8,-0.85,-3.27,-3.87,0,*5C
1507287949.88,7629,13.13,72836.8,-0.83,-3.19,-3.79,0,*57
1507287951.13,7630,13.13,72836.0,-0.83,-3.43,-3.91,0,*56
1507287952.37,7631,13.06,72832.3,-0.83,-3.55,-4.13,0,*5D
1507287953.61,7632,13.06,72834.3,-0.83,-3.47,-4.09,0,*56
1507287954.85,7633,13.06,72838.0,-0.83,-4.33,-5.11,0,*5B
1507287956.08,7634,13.06,72834.8,-0.81,-4.21,-4.85,0,*51
1507287957.31,7635,13.13,72832.8,-0.83,-4.99,-5.81,0,*54
1507287958.57,7636,13.06,72832.0,-0.83,-5.11,-5.77,0,*5F
1507287959.83,7637,13.06,72830.3,-0.85,-5.03,-5.69,0,*54
1507287961.06,7638,13.13,72834.5,-0.85,-4.73,-5.43,0,*55
1507287962.29,7639,13.06,72834.8,-0.83,-4.99,-5.69,0,*5E
1507287963.52,7640,13.06,72832.8,-0.85,-4.85,-5.51,0,*50
1507287964.77,7641,13.06,72832.3,-0.89,-5.61,-6.23,0,*50
1507287966.0,7642,13.13,72836.0,-0.89,-5.77,-6.39,0,*5F
1507287967.2,7643,13.06,72834.0,-0.91,-4.99,-5.73,0,*5B
1507287968.44,7644,13.06,72834.3,-0.91,-5.11,-5.85,0,*54
1507287969.7,7645,13.06,72834.0,-0.89,-5.07,-5.69,0,*59
1507287970.93,7646,13.06,72832.8,-0.89,-4.89,-5.43,0,*55
1507287972.14,7647,13.13,72834.8,-0.91,-4.65,-5.31,0,*5A
1507287973.36,7648,13.13,72832.8,-0.91,-4.33,-4.89,0,*54
1507287974.59,7649,13.06,72834.3,-0.91,-5.19,-5.77,0,*5C
1507287975.81,7650,13.06,72832.3,-0.91,-4.65,-5.19,0,*56
1507287976.99,7651,13.13,72838.8,-0.91,-4.45,-4.99,0,*5C
1507287978.16,7652,13.06,72836.3,-0.91,-4.45,-4.99,0,*5F
1507287979.36,7653,13.06,72838.0,-0.91,-4.45,-4.93,0,*54
1507287980.58,7654,13.13,72836.8,-0.91,-4.29,-4.81,0,*5A
1507287981.78,7655,13.13,72838.0,-0.89,-4.45,-4.99,0,*51
1507287982.99,7656,13.06,72834.3,-0.91,-4.33,-4.81,0,*53
1507287984.18,7657,13.06,72834.8,-0.91,-3.91,-4.45,0,*55
1507287985.43,7658,13.06,72832.8,-0.85,-4.01,-4.65,0,*53
1507287986.66,7659,13.06,72836.5,-0.89,-4.13,-4.69,0,*51
1507287987.87,7660,13.06,72832.5,-0.85,-4.09,-4.65,0,*50
1507287989.09,7661,13.06,72832.0,-0.83,-3.91,-4.49,0,*5F
1507287990.3,7662,13.13,72838.3,-0.85,-3.87,-4.49,0,*5D
1507287991.55,7663,13.13,72836.5,-0.83,-4.21,-4.81,0,*55
1507287992.78,7664,13.06,72836.3,-0.83,-3.91,-4.61,0,*50
1507287994.01,7665,13.06,72834.3,-0.83,-3.91,-4.57,0,*54
1507287995.2,7666,13.06,72836.3,-0.81,-4.09,-4.57,0,*53
1507287996.41,7667,13.06,72838.3,-0.81,-4.33,-4.93,0,*53
1507287997.59,7668,13.13,72838.8,-0.81,-4.45,-4.99,0,*57
1507287998.81,7669,13.06,72834.8,-0.81,-4.05,-4.73,0,*56
1507288000.02,7670,13.06,72838.8,-0.81,-4.89,-5.51,0,*5B
1507288001.24,7671,13.13,72836.5,-0.81,-4.57,-5.11,0,*5D
1507288002.46,7672,13.06,72838.0,-0.81,-4.25,-4.89,0,*5B
1507288003.67,7673,13.13,72838.8,-0.81,-4.49,-5.11,0,*50
1507288004.89,7674,13.13,72840.0,-0.83,-4.05,-4.57,0,*5E
1507288006.13,7675,13.06,72836.0,-0.83,-4.09,-4.69,0,*5E
1507288007.38,7676,13.13,72838.8,-0.83,-4.21,-4.73,0,*5C
1507288008.6,7677,13.13,72836.3,-0.81,-4.25,-4.81,0,*56
1507288009.81,7678,13.06,72838.8,-0.81,-4.37,-4.89,0,*52
1507288011.02,7679,13.13,72836.0,-0.81,-4.09,-4.69,0,*50
1507288012.22,7680,13.06,72836.5,-0.81,-4.09,-4.65,0,*5A
1507288013.41,7681,13.06,72838.8,-0.81,-3.87,-4.53,0,*5F
1507288014.6,7682,13.13,72842.0,-0.81,-3.83,-4.45,0,*5F
1507288015.81,7683,13.06,72838.0,-0.79,-3.87,-4.45,0,*5D
1507288017.01,7684,13.13,72838.8,-0.77,-3.79,-4.41,0,*51
1507288018.22,7685,13.13,72838.5,-0.81,-3.71,-4.33,0,*54
1507288019.41,7686,13.13,72840.3,-0.77,-3.79,-4.45,0,*57
1507288020.62,7687,13.13,72836.3,-0.75,-3.87,-4.53,0,*52
1507288021.81,7688,13.13,72838.3,-0.77,-3.79,-4.45,0,*59
1507288023.03,7689,13.13,72838.8,-0.79,-4.05,-4.57,0,*59
1507288024.22,7690,13.13,72838.3,-0.77,-3.79,-4.41,0,*54
1507288025.47,7691,13.13,72836.5,-0.79,-4.33,-4.85,0,*5A
1507288026.71,7692,13.13,72840.8,-0.79,-4.65,-5.31,0,*54
1507288027.92,7693,13.06,72838.0,-0.77,-4.29,-4.77,0,*50
1507288029.13,7694,13.13,72836.0,-0.77,-4.53,-5.19,0,*53
1507288030.36,7695,13.13,72840.3,-0.79,-5.31,-6.09,0,*5B
1507288031.63,7696,13.13,72838.3,-0.79,-5.07,-5.65,0,*54
1507288032.81,7697,13.06,72838.5,-0.81,-4.99,-5.39,0,*5D
1507288034.05,7698,13.13,72836.0,-0.81,-4.73,-5.27,0,*59
1507288035.27,7699,13.13,72836.5,-0.81,-4.33,-4.81,0,*51
1507288036.5,7700,13.13,72836.8,-0.85,-4.41,-4.85,0,*55
1507288037.73,7701,13.13,72838.5,-0.83,-4.45,-4.89,0,*5A
1507288038.96,7702,13.06,72838.0,-0.85,-4.89,-5.43,0,*58
1507288040.22,7703,13.13,72838.0,-0.85,-4.77,-5.19,0,*57
1507288041.46,7704,13.13,72836.3,-0.83,-4.33,-4.81,0,*56
1507288042.69,7705,13.13,72838.5,-0.85,-4.29,-4.85,0,*5E
1507288043.92,7706,13.13,72836.0,-0.85,-4.53,-4.93,0,*57
1507288045.15,7707,13.13,72836.5,-0.85,-4.49,-4.89,0,*56
1507288046.39,7708,13.06,72836.3,-0.85,-4.53,-5.07,0,*55
1507288047.61,7709,13.13,72838.8,-0.85,-4.49,-4.93,0,*53
1507288048.85,7710,13.13,72836.0,-0.85,-4.61,-5.19,0,*52
1507288050.07,7711,13.06,72834.5,-0.91,-4.57,-5.07,0,*5C
1507288051.31,7712,13.13,72832.5,-0.89,-4.21,-4.69,0,*5E
1507288052.52,7713,13.13,72832.0,-0.91,-4.57,-5.11,0,*59
1507288053.75,7714,13.13,72834.0,-0.89,-4.29,-4.77,0,*5F
1507288054.97,7715,13.13,72828.0,-0.89,-3.91,-4.45,0,*5B
1507288056.18,7716,13.13,72828.8,-0.91,-4.21,-4.77,0,*5C
1507288057.43,7717,13.13,72830.8,-0.89,-4.01,-4.57,0,*54
1507288058.64,7718,13.13,72834.0,-0.89,-3.91,-4.41,0,*52
1507288059.85,7719,13.13,72834.8,-0.89,-3.87,-4.33,0,*51
1507288061.07,7720,13.06,72834.3,-0.89,-3.79,-4.29,0,*51
1507288062.29,7721,13.13,72836.8,-0.89,-4.81,-5.43,0,*5D
1507288063.51,7722,13.13,72838.3,-0.91,-5.31,-5.97,0,*54
1507288064.71,7723,13.13,72834.8,-0.91,-4.81,-5.43,0,*56
1507288065.95,7724,13.13,72834.8,-0.93,-4.33,-4.81,0,*55
1507288067.17,7725,13.13,72830.8,-0.95,-4.25,-4.73,0,*58
1507288068.41,7726,13.13,72834.8,-0.93,-4.33,-4.85,0,*53
1507288069.62,7727,13.13,72834.5,-0.93,-4.21,-4.61,0,*5B
1507288070.86,7728,13.13,72830.0,-0.93,-4.09,-4.73,0,*5D
1507288072.07,7729,13.13,72830.5,-0.91,-4.65,-5.19,0,*59
1507288073.29,7730,13.06,72830.5,-0.95,-4.57,-5.15,0,*58
1507288074.54,7731,13.13,72834.0,-0.93,-4.93,-5.81,0,*5A
1507288075.78,7732,13.13,72838.5,-0.95,-5.15,-5.65,0,*5A
1507288077.0,7733,13.13,72838.5,-0.95,-5.35,-5.93,0,*50
1507288078.2,7734,13.13,72834.3,-0.97,-4.99,-5.51,0,*5C
1507288079.44,7735,13.13,72832.5,-0.99,-4.89,-5.31,0,*54
1507288080.66,7736,13.13,72836.5,-0.99,-4.65,-5.07,0,*50
1507288081.89,7737,13.13,72836.5,-0.97,-4.49,-4.85,0,*5A
1507288083.11,7738,13.13,72838.3,-0.99,-4.57,-4.93,0,*53
1507288084.34,7739,13.13,72836.0,-0.97,-4.37,-4.85,0,*5D
1507288085.55,7740,13.06,72832.0,-0.99,-4.29,-4.81,0,*56
1507288086.77,7741,13.13,72834.5,-0.99,-4.41,-4.89,0,*51
1507288087.97,7742,13.13,72838.5,-0.99,-4.77,-5.47,0,*54
1507288089.21,7743,13.13,72832.5,-0.99,-5.31,-5.69,0,*5A
1507288090.46,7744,13.13,72832.3,-1.01,-4.57,-5.11,0,*63
1507288091.73,7745,13.13,72832.0,-1.01,-5.11,-5.61,0,*66
1507288092.97,7746,13.13,72832.8,-1.01,-4.53,-5.11,0,*65
1507288094.18,7747,13.13,72832.3,-1.03,-4.85,-5.47,0,*6E
1507288095.39,7748,13.13,72830.8,-1.03,-4.81,-5.35,0,*60
1507288096.61,7749,13.13,72836.0,-1.03,-5.61,-6.13,0,*69
1507288097.83,7750,13.13,72828.8,-1.07,-5.65,-6.31,0,*61
1507288099.05,7751,13.13,72834.0,-1.07,-4.99,-5.65,0,*60
1507288100.29,7752,13.13,72832.8,-1.07,-4.85,-5.31,0,*6F
1507288101.54,7753,13.13,72834.0,-1.07,-5.15,-5.81,0,*6D
1507288102.73,7754,13.13,72834.8,-1.11,-6.09,-6.69,0,*66
1507288103.98,7755,13.13,72834.5,-1.13,-5.85,-6.47,0,*6E
1507288105.2,7756,13.13,72832.5,-1.15,-5.43,-5.93,0,*6B
1507288106.44,7757,13.13,72832.3,-1.15,-5.15,-5.73,0,*67
1507288107.67,7758,13.13,72834.3,-1.15,-5.35,-5.85,0,*63
1507288108.91,7759,13.13,72828.3,-1.15,-5.19,-5.73,0,*65
1507288110.12,7760,13.13,72832.5,-1.17,-5.27,-5.97,0,*6A
1507288111.3,7761,13.13,72832.8,-1.17,-5.47,-5.97,0,*6D
1507288112.52,7762,13.13,72834.8,-1.17,-5.35,-5.85,0,*68
1507288113.73,7763,13.13,72834.3,-1.17,-5.35,-5.85,0,*69